Miscellaneous Local Product
Issued by NWS North Platte, NE

Home | Current Version | Previous Version | Graphics & Text | Print | Product List | Glossary On
Versions: 1 2 3 4 5 6 7 8 9 10 11 12 13 14 15 16 17 18 19 20 21 22 23 24 25 26 27 28 29 30 31 32 33 34 35 36 37 38 39 40 41 42 43 44 45 46 47 48 49 50
000
AXUS43 KLBF 020010
MISLBF


WESTERN AND NORTH CENTRAL NEBRASKA HOURLY WEATHER ROUNDUP
NATIONAL WEATHER SERVICE NORTH PLATTE NE
700 PM CDT WED OCT 01 2014

***STATIONS NOT REPORTING VARIABLES SUCH AS SKY/WEATHER OR
PRESSURE ARE PROVIDED BY THE NEBRASKA DEPARTMENT OF
ROADS...RAWS...AND APRS NETWORKS...AND ARE NOT UNDER
NATIONAL WEATHER SERVICE QUALITY CONTROL***

...OBSERVATIONS IN AND NEAR THE EASTERN PANHANDLE OF NEBRASKA...

CITY           SKY/WX    TMP DP  RH WIND       PRES   REMARKS
PINE RIDGE     LGT RAIN  50  46  86 N6        29.93R
CHADRON        CLOUDY    53  46  77 N7        29.94R
ALLIANCE       LGT RAIN  52  48  86 NW15G25   29.90R FOG
SIDNEY         TSTM      51  47  86 W18G35    29.92R FOG
WHITECLAY        N/A     46  45  93 E5          N/A
RUSHVILLE        N/A     54  46  76 NE20        N/A
LISCO            N/A     58  47  67 W22         N/A
BIG SPRINGS      N/A     70  49  46 CALM        N/A
$$

...OBSERVATIONS IN NORTH CENTRAL NEBRASKA...

CITY           SKY/WX    TMP DP  RH WIND       PRES   REMARKS
VALENTINE      PTCLDY    63  46  54 N10       29.85R
THEDFORD       MOCLDY    68  49  49 NE10      29.82R
AINSWORTH      CLEAR     62  47  58 N8        29.83R
O`NEILL        MOCLDY    67  53  62 N6        29.81R
ORD            PTCLDY    68  51  54 NE6       29.77R
BROKEN BOW     CLOUDY    71  49  45 NE9       29.78R
SPRINGVIEW       N/A     69  51  51 N3          N/A
ROSE             N/A     72  53  51 N6          N/A
NEWPORT          N/A     68  51  52 CALM        N/A
SARGENT          N/A     72  51  46 CALM        N/A
COMSTOCK         N/A     72  54  51 CALM        N/A
CHAMBERS         N/A     66  47  51 CALM        N/A
EWING            N/A     69  55  60 CALM        N/A
$$

...OBSERVATIONS IN SOUTHWEST NEBRASKA AND FAR NORTHEAST COLORADO...

CITY           SKY/WX    TMP DP  RH WIND       PRES   REMARKS
WRAY           FAIR      70  40  33 E8        29.79S
HOLYOKE        FAIR      64  45  48 E7        29.80F
IMPERIAL       PTCLDY    71  42  35 E6        29.79R
OGALLALA       MOCLDY    67  49  52 N3        29.79R
NORTH PLATTE   PTCLDY    68  49  50 E5        29.77S
MCCOOK         CLEAR     75  43  31 CALM      29.76R
LEXINGTON      PTCLDY    70  56  60 NE5       29.77R
PAXTON           N/A     72  47  41 CALM        N/A
SUTHERLAND       N/A     76  40  26 CALM        N/A
BRADY            N/A     72  49  43 CALM        N/A
GOTHENBURG       N/A     75  39  27 CALM        N/A
CALLAWAY         N/A     74  52  46 CALM        N/A
$$

...SOME WEATHER OBSERVATIONS FROM AROUND THE REGION...

CITY           SKY/WX    TMP DP  RH WIND       PRES   REMARKS
DENVER         MOCLDY    46  42  86 N18       29.97R
LARAMIE        CLOUDY    43  33  68 SW7       30.00R
CHEYENNE       MOCLDY    42  36  79 N7        29.99R
SCOTTSBLUFF    CLOUDY    54  43  66 NW25G32   29.94R
RAPID CITY     CLOUDY    53  42  66 N10       29.92R
PIERRE         PTCLDY    59  46  62 NW16      29.83R
WINNER         FAIR      65  46  50 NW10      29.83R
SIOUX FALLS    MOCLDY    68  53  58 NW5       29.77R
OMAHA          MOCLDY    73  62  68 NE3       29.74R
GRAND ISLAND   CLEAR     71  56  58 N7        29.76R
KANSAS CITY    CLOUDY    70  65  84 SE13      29.75R
WICHITA        PTCLDY    87  60  40 S3        29.64F
HAYS           CLEAR     73  61  64 E3        29.73S
LIBERAL        CLEAR     81  39  22 CALM      29.76R
GOODLAND       PTCLDY    71  43  36 SE3       29.80R
$$



USA.gov is the U.S. government's official web portal to all federal, state and local government web resources and services.